This demonstration page uses our WeatherBlox Daily Observations layout. Learn more.

Left ArrowRight Arrow

39.08367, -84.50855

Hourly Observations for March 5, 2016

Temp ( °F °C ) Dew Point ( °F °C ) Humidity (%) Winds ( mph kmh ) Pressure ( in mb ) Visibility ( mi km ) Precip ( " mm )
12:46 am 00:46 Clear with Mist and Fog 28 -2 27 -3 93 93 N N/A 30.21 1023 1.75 2.816345 N/A
12:53 am 00:53 Clear with Mist and Fog 28 -2.2 28 -2.2 100 100 N N/A 30.2 1023 1.75 2.816345 N/A
12:56 am 00:56 Clear with Mist and Fog 28 -2 28 -2 100 100 N N/A 30.21 1023 3 4.82802 N/A
1:53 am 01:53 Clear with Mist and Fog 29 -1.7 28 -2.2 96 96 N N/A 30.21 1023 6 9.65604 N/A
2:28 am 02:28 Mostly Cloudy with Mist and Fog 30 -1 28 -2 93 93 N N/A 30.21 1023 6 9.65604 N/A
2:37 am 02:37 Partly Cloudy with Mist and Fog 30 -1.1 28 -2.2 92 92 N N/A 30.21 1023 6 9.65604 N/A
2:53 am 02:53 Mostly Cloudy with Mist and Fog 30 -1.1 29 -1.7 96 96 N N/A 30.19 1022 5 8.0467 N/A
3:24 am 03:24 Partly Cloudy with Mist and Fog 30 -1 28 -2 93 93 NNW 5 7 30.21 1023 6 9.65604 N/A
3:37 am 03:37 Mostly Cloudy with Mist and Fog 30 -1.1 29 -1.7 96 96 W 3 6 30.21 1023 6 9.65604 N/A
3:45 am 03:45 Mostly Cloudy with Mist and Fog 30 -1.1 29 -1.7 96 96 N N/A 30.21 1023 6 9.65604 N/A
3:53 am 03:53 Partly Cloudy with Mist and Fog 30 -1.1 29 -1.7 96 96 N N/A 30.18 1022 5 8.0467 N/A
4:53 am 04:53 Cloudy with Mist and Fog 30 -1.1 29 -1.7 96 96 N N/A 30.16 1021 5 8.0467 N/A
5:53 am 05:53 Cloudy with Mist and Fog 31 -0.6 30 -1.1 96 96 SSW 3 6 30.16 1021 6 9.65604 N/A
6:53 am 06:53 Cloudy with Mist and Fog 32 undefined 31 -0.6 96 96 SSW 7 11 30.15 1021 6 9.65604 N/A
7:27 am 07:27 Cloudy with Mist and Fog 33 0.6 31 -0.6 92 92 N N/A 30.12 1020 6 9.65604 N/A
7:48 am 07:48 Cloudy with Mist and Fog 34 1 32 undefined 93 93 N N/A 30.18 1022 4 6.43736 N/A
7:53 am 07:53 Cloudy with Mist and Fog 33 0.6 32 undefined 96 96 SW 3 6 30.15 1021 4 6.43736 N/A
8:53 am 08:53 Cloudy with Mist and Fog 35 1.7 33 0.6 93 93 S 8 13 30.14 1021 5 8.0467 N/A
9:53 am 09:53 Cloudy 38 3.3 34 1.1 86 86 S 8 13 30.13 1020 7 11.26538 N/A
10:11 am 10:11 Cloudy 38 3.3 34 1.1 86 86 SSW 8 13 30.12 1020 8 12.87472 N/A
10:50 am 10:50 Cloudy 39 4 36 2 87 87 S 8 13 30.09 1019 8 12.87472 N/A
10:53 am 10:53 Cloudy 39 3.9 35 1.7 86 86 S 9 15 30.11 1020 8 12.87472 N/A
11:49 am 11:49 Cloudy 39 4 36 2 87 87 S 12 19 30.09 1019 7 11.26538 N/A
11:53 am 11:53 Cloudy 39 3.9 35 1.7 86 86 SSW 9 15 30.1 1019 7 11.26538 N/A
12:53 pm 12:53 Cloudy with Mist and Fog 39 3.9 37 2.8 93 93 S 5 7 30.09 1019 6 9.65604 N/A
1:53 pm 13:53 Cloudy with Mist and Fog 40 4.4 38 3.3 93 93 WSW 6 9 30.08 1019 4 6.43736 N/A
2:15 pm 14:15 Cloudy with Mist and Fog 40 4.4 38 3.3 93 93 W 7 11 30.06 1018 2 3.21868 N/A
2:53 pm 14:53 Cloudy with Mist and Fog 40 4.4 37 2.8 89 89 WNW 9 15 30.09 1019 6 9.65604 N/A
3:53 pm 15:53 Cloudy with Mist and Fog 40 4.4 36 2.2 86 86 W 8 13 30.1 1019 5 8.0467 N/A
4:53 pm 16:53 Cloudy with Haze 41 5 36 2.2 82 82 WNW 6 9 30.11 1020 5 8.0467 N/A
5:53 pm 17:53 Cloudy with Haze 41 5 35 1.7 79 79 W 5 7 30.13 1020 6 9.65604 N/A
6:53 pm 18:53 Cloudy with Light Rain 41 5 36 2.2 82 82 WNW 3 6 30.16 1021 6 9.65604 N/A
7:53 pm 19:53 Cloudy with Mist and Fog 40 4.4 37 2.8 89 89 N N/A 30.18 1022 6 9.65604 N/A
8:53 pm 20:53 Cloudy 41 5 36 2.2 82 82 WNW 3 6 30.2 1023 7 11.26538 N/A
9:25 pm 21:25 Cloudy 41 5 36 2.2 82 82 NNW 10 17 30.21 1023 7 11.26538 N/A
9:53 pm 21:53 Cloudy 41 5 35 1.7 79 79 NNW 12 19 30.23 1024 7 11.26538 N/A
10:53 pm 22:53 Partly Cloudy 39 3.9 34 1.1 82 82 NNW 8 13 30.25 1024 7 11.26538 N/A
11:12 pm 23:12 Mostly Cloudy 39 4 34 1 81 81 NW 5 7 30.24 1024 7 11.26538 N/A
11:53 pm 23:53 Mostly Cloudy 39 3.9 33 0.6 79 79 N 10 17 30.26 1025 7 11.26538 N/A

Powered by AerisWeather